Wind_Speed
26 22 21 21 23 25 26 26 23 21 21 22 21 19 17 17 17 16 15 15 15 15 15 15 15 15 15 15 15 15 15 16 15 15 15 16 16 16 17 17 17 18 18 18
30 25 23 22 21 24 25 25 24 23 23 23 23 21 18 17 17 17 16 15 15 15 15 15 15 14 14 14 14 14 14 14 14 14 14 15 16 17 17 17 17 17 18 18
29 26 24 25 25 25 25 26 25 26 28 26 24 23 21 19 18 18 17 16 16 16 16 15 15 15 14 14 14 13 12 13 13 14 14 14 15 15 15 15 16 16 16 17
27 27 28 25 23 24 25 27 28 28 30 26 23 22 22 20 19 18 18 18 17 17 16 15 15 14 14 14 13 12 12 12 13 13 13 14 14 15 15 15 15 15 16 17
28 27 26 25 25 25 27 28 30 31 30 27 25 23 22 22 20 20 19 19 18 17 16 15 15 15 14 14 14 14 14 13 14 14 14 14 15 15 15 15 15 15 15 16
29 27 26 26 26 27 29 30 31 32 29 27 25 25 25 23 22 21 20 19 18 17 17 16 15 15 15 14 14 14 15 15 14 14 14 14 15 15 15 15 15 15 15 15
29 29 28 27 27 27 30 32 31 28 27 26 25 25 24 24 23 22 21 20 19 18 17 17 16 16 15 15 15 15 15 15 15 15 15 15 15 15 16 16 16 15 16 16
30 31 30 30 30 30 30 29 27 26 26 26 25 24 24 24 23 22 21 20 20 19 18 18 17 17 17 17 16 16 16 16 16 16 15 15 15 16 16 16 15 16 16 16
34 34 32 30 30 29 29 27 26 26 26 26 26 26 24 23 23 22 21 21 20 20 19 19 19 19 18 18 17 17 17 17 17 16 16 16 16 16 16 16 16 17 17 18
34 34 31 30 29 27 27 26 25 26 27 26 26 24 24 24 24 23 22 21 21 20 20 19 19 19 19 19 18 18 17 17 17 17 17 17 18 17 17 17 17 18 18 19
34 33 30 30 28 27 26 26 25 26 26 26 26 26 26 25 24 23 22 22 21 20 20 20 20 19 19 19 19 18 18 18 18 18 18 18 18 18 18 18 19 19 20 20
33 32 31 29 27 27 27 27 26 26 25 25 25 25 25 25 24 23 23 22 22 21 20 20 21 21 21 20 19 19 19 18 19 19 19 18 18 18 18 18 18 19 20 20
31 31 31 30 28 27 28 28 28 27 27 26 26 26 26 25 25 24 24 23 22 22 22 22 21 21 21 21 20 20 20 19 19 19 18 18 18 18 18 19 19 20 21 22
31 30 31 31 29 28 27 27 28 28 28 27 26 26 26 26 26 25 24 23 23 22 22 21 21 21 20 20 20 20 19 19 19 19 19 19 19 19 20 21 21 22 23 23
31 30 30 30 29 28 27 26 26 27 27 27 27 27 26 25 25 25 24 23 22 21 21 20 20 20 19 19 19 20 19 19 20 20 19 19 20 20 21 21 22 22 22 23
29 29 28 28 28 27 26 25 25 25 26 26 27 26 25 25 24 23 22 21 21 20 20 20 19 19 19 19 19 20 20 20 19 19 19 20 20 21 21 21 21 22 22 23
27 27 27 26 26 26 25 26 25 25 24 24 24 24 24 23 23 22 21 21 20 20 19 19 19 19 19 19 20 20 19 19 19 19 19 20 20 21 21 21 22 23 23 24
25 25 25 25 24 24 24 25 24 23 23 23 24 23 22 22 20 20 20 19 19 19 18 18 18 18 19 19 19 18 18 18 19 19 20 20 21 22 22 22 22 24 25 26
24 23 23 23 23 23 23 23 23 23 23 22 21 21 21 21 20 20 20 19 19 18 18 17 16 16 17 17 17 16 17 17 18 19 20 20 20 20 21 22 23 25 26 27
23 23 22 22 22 22 22 21 21 21 21 21 20 20 20 19 19 18 18 18 17 16 16 16 16 16 16 16 15 15 16 17 18 18 19 20 20 21 22 23 25 26 27 29
22 23 23 21 20 21 21 21 21 20 19 19 20 19 19 18 17 16 16 16 16 16 15 15 15 15 15 16 16 17 17 18 18 19 19 20 21 22 24 25 26 28 29 30
21 22 23 23 21 21 21 20 20 20 19 19 18 18 17 17 16 15 15 15 15 15 15 15 15 16 16 16 16 17 17 18 19 19 20 21 23 24 26 27 28 29 30 31
19 20 21 22 21 20 19 19 19 18 17 17 16 15 15 15 15 15 14 13 14 13 14 15 16 16 15 16 17 17 18 19 19 20 21 23 24 26 27 28 29 29 30 31
18 19 19 19 19 18 17 17 16 15 15 15 14 14 15 15 15 14 13 13 13 13 14 15 15 16 16 17 18 18 18 19 20 21 23 24 25 26 27 28 29 30 30 31
16 16 17 17 16 16 15 14 14 13 13 13 13 13 14 13 13 12 12 12 12 13 14 14 15 15 16 17 17 18 19 20 22 23 25 26 27 27 28 28 29 30 30 30
16 16 16 15 15 14 14 13 13 12 11 11 11 11 11 11 11 12 12 12 13 13 14 14 15 16 17 18 18 20 21 22 24 25 26 27 27 27 28 28 29 29 29 29
15 15 15 14 14 13 13 12 12 11 11 10 10 10 11 11 12 12 12 13 13 14 15 15 17 18 19 20 20 22 23 24 25 26 26 27 27 27 28 28 28 29 29 29
Wind_Direction
197 202 217 222 216 214 213 215 218 227 239 248 249 253 258 257 257 256 254 256 260 265 267 270 273 279 283 282 280 278 273 270 270 271 273 270 268 267 265 264 265 265 263 260
201 198 208 215 212 211 214 215 216 223 229 236 247 251 255 257 257 255 254 257 261 265 267 269 271 276 282 284 280 277 277 275 275 273 273 273 272 271 267 265 266 267 265 260
204 205 208 213 210 210 211 214 216 227 231 232 241 246 251 253 254 253 254 258 262 265 269 271 272 276 279 280 278 275 279 280 278 275 277 276 276 276 273 270 268 268 266 264
204 210 215 212 211 212 215 217 219 228 234 233 237 243 247 250 251 252 253 257 261 265 268 270 272 273 274 276 277 278 283 281 278 279 279 279 277 278 277 275 273 273 269 269
207 210 217 216 211 211 213 215 219 225 232 235 236 242 246 249 250 251 254 257 260 264 268 270 271 271 273 275 277 280 283 281 278 278 281 282 279 279 280 279 276 276 275 273
208 211 212 213 213 212 216 220 223 226 229 234 237 240 243 246 248 250 254 257 260 263 267 270 271 272 272 272 275 278 281 282 281 279 281 282 282 282 279 277 277 276 275 273
210 215 218 213 211 216 221 225 229 230 230 233 235 239 242 245 247 249 253 255 258 261 265 267 270 273 272 272 275 276 278 281 281 281 282 283 283 282 280 278 276 275 275 274
214 217 219 217 217 219 225 229 232 234 234 235 238 240 241 244 246 248 251 253 257 259 262 265 268 271 273 273 274 275 276 279 280 281 282 282 281 281 281 279 276 276 276 277
218 221 221 222 225 229 229 231 232 234 234 236 239 242 243 243 246 249 253 254 257 258 261 264 266 269 273 275 275 274 275 276 278 280 280 280 282 282 279 278 280 281 281 280
225 228 229 230 228 227 230 233 234 236 237 239 241 242 241 244 246 251 252 255 258 258 261 264 265 268 272 274 274 275 276 276 276 278 280 282 283 282 281 279 279 279 281 283
227 227 225 228 227 226 230 234 237 239 240 241 241 241 241 243 247 251 252 254 257 259 261 263 264 267 272 274 273 275 277 276 276 276 278 282 284 284 283 282 282 283 283 283
222 223 225 226 229 230 231 233 235 239 239 240 241 240 240 243 248 250 252 255 258 260 262 264 266 268 271 275 274 275 276 275 275 277 278 280 281 284 285 286 285 285 285 285
224 227 227 226 228 230 234 236 237 238 239 240 241 241 243 246 249 251 253 255 257 260 261 263 266 268 270 273 273 274 274 274 275 276 277 278 280 281 284 286 288 287 287 287
226 229 231 230 231 231 233 236 238 238 238 239 240 240 244 246 248 251 252 255 258 259 261 263 265 268 271 271 272 275 275 275 275 274 276 278 279 281 284 286 288 288 288 289
227 228 229 230 231 232 233 235 237 237 238 238 239 241 244 246 248 250 252 253 255 258 260 262 263 265 269 270 272 274 275 275 275 275 276 279 281 283 285 286 288 290 290 291
222 224 226 227 229 231 232 232 233 235 238 239 239 241 242 244 246 249 249 249 252 255 259 261 262 264 267 269 271 273 272 272 275 276 278 280 283 285 287 287 289 291 292 292
219 221 223 224 227 230 231 231 232 233 235 235 237 239 240 242 244 247 247 248 252 256 258 261 263 265 267 268 270 272 273 273 274 278 281 282 283 285 286 288 288 289 291 293
217 218 220 221 223 225 228 230 232 232 233 234 238 239 238 239 243 246 247 249 254 257 260 263 265 267 269 269 271 273 275 276 276 277 279 282 283 284 285 288 290 292 294 296
215 216 219 221 222 224 225 226 228 230 229 231 235 236 238 241 244 247 250 254 256 257 259 260 262 263 266 268 271 274 275 276 277 280 283 285 285 288 291 293 295 296 297 298
212 214 216 218 219 221 223 224 226 226 227 228 230 232 234 237 241 243 247 252 254 255 258 259 260 263 266 267 268 272 277 281 283 285 287 289 291 293 295 296 297 298 299 300
213 214 213 214 217 220 223 226 225 225 227 228 231 233 233 236 239 240 246 250 253 254 255 256 259 263 265 267 270 275 278 281 283 286 289 292 294 295 296 297 298 299 300 301
211 213 214 215 218 219 220 222 223 227 230 231 231 230 231 235 236 238 243 248 251 254 255 257 260 261 264 269 272 276 280 283 286 288 290 292 294 295 296 298 299 300 301 302
210 212 213 215 216 216 218 220 223 225 225 226 228 228 230 232 235 238 244 248 249 251 255 259 263 266 270 275 278 280 283 286 288 290 292 294 296 297 298 300 301 302 303 303
206 207 207 208 210 211 212 215 217 218 219 223 226 228 230 232 235 241 243 245 250 256 261 263 264 269 275 278 282 285 287 288 291 292 294 296 298 299 300 301 302 303 304 304
194 194 196 198 202 202 203 206 208 211 214 218 224 228 230 232 237 241 243 250 255 260 264 269 273 276 279 282 285 287 289 291 293 295 296 297 298 299 300 301 303 304 304 304
182 185 188 189 189 190 194 198 202 206 211 218 223 227 230 233 237 242 248 254 260 266 269 272 276 280 284 286 288 290 291 293 294 295 296 297 298 300 301 302 303 304 304 305
177 180 183 185 188 192 197 202 206 209 213 219 227 232 236 240 244 248 253 261 267 271 274 277 281 283 285 287 289 292 294 295 297 297 297 298 300 302 303 303 304 304 306 307
Height
5795 5800 5804 5807 5811 5815 5819 5824 5828 5831 5831 5830 5832 5832 5834 5836 5838 5839 5840 5841 5841 5842 5842 5842 5843 5843 5842 5841 5841 5840 5840 5840 5840 5840 5840 5841 5841 5842 5842 5843 5843 5844 5844 5845
5790 5794 5799 5802 5806 5811 5815 5819 5823 5825 5826 5826 5827 5828 5830 5832 5834 5836 5837 5838 5838 5839 5839 5839 5840 5840 5839 5838 5837 5837 5837 5837 5837 5837 5837 5837 5837 5838 5838 5838 5839 5839 5840 5840
5785 5790 5794 5798 5802 5806 5811 5815 5818 5820 5821 5820 5823 5825 5828 5830 5831 5832 5834 5835 5835 5836 5836 5836 5836 5836 5836 5835 5835 5834 5834 5834 5834 5834 5834 5834 5834 5834 5834 5834 5835 5835 5836 5836
5780 5786 5789 5795 5798 5802 5806 5809 5812 5813 5814 5816 5819 5822 5824 5826 5827 5829 5830 5831 5832 5833 5833 5833 5833 5833 5833 5832 5832 5832 5832 5831 5831 5831 5831 5831 5831 5831 5831 5831 5831 5832 5832 5832
5775 5779 5784 5789 5792 5796 5800 5803 5805 5807 5809 5813 5815 5818 5820 5821 5823 5825 5827 5828 5829 5829 5830 5830 5830 5830 5830 5829 5829 5829 5829 5829 5829 5828 5828 5828 5828 5828 5828 5828 5828 5828 5828 5828
5770 5774 5778 5784 5786 5790 5795 5796 5798 5801 5804 5808 5811 5814 5816 5818 5819 5821 5822 5824 5825 5825 5826 5826 5827 5827 5826 5826 5826 5826 5826 5826 5826 5825 5825 5825 5825 5824 5824 5824 5824 5824 5824 5824
5764 5768 5771 5775 5779 5784 5788 5789 5792 5795 5798 5803 5806 5809 5811 5813 5814 5816 5818 5819 5820 5821 5822 5823 5823 5823 5823 5823 5823 5823 5823 5823 5823 5822 5822 5822 5821 5821 5820 5820 5821 5821 5821 5821
5759 5762 5767 5768 5773 5777 5780 5783 5786 5790 5794 5798 5802 5804 5805 5807 5809 5811 5813 5814 5816 5817 5818 5818 5819 5819 5819 5819 5819 5820 5820 5819 5819 5819 5819 5818 5818 5817 5817 5817 5817 5817 5817 5817
5752 5756 5759 5762 5766 5770 5774 5777 5781 5785 5789 5792 5795 5798 5799 5802 5804 5806 5808 5810 5811 5812 5813 5814 5814 5815 5815 5815 5815 5815 5815 5815 5815 5815 5815 5814 5814 5814 5813 5813 5813 5813 5813 5813
5746 5750 5754 5757 5760 5765 5769 5773 5777 5780 5783 5787 5790 5792 5794 5797 5800 5801 5803 5805 5806 5807 5808 5809 5809 5810 5810 5810 5811 5811 5811 5811 5811 5811 5811 5810 5810 5809 5809 5809 5809 5809 5808 5808
5740 5744 5748 5751 5755 5760 5764 5768 5772 5775 5778 5781 5784 5787 5790 5792 5794 5796 5799 5800 5801 5802 5803 5804 5805 5805 5806 5806 5806 5806 5806 5806 5806 5806 5806 5806 5805 5805 5805 5804 5804 5803 5803 5802
5733 5738 5743 5748 5752 5756 5760 5763 5767 5770 5773 5776 5779 5781 5783 5786 5789 5791 5793 5795 5796 5797 5798 5799 5800 5800 5801 5801 5801 5801 5801 5801 5801 5801 5801 5801 5801 5800 5800 5799 5799 5798 5798 5797
5728 5733 5738 5743 5746 5750 5754 5758 5761 5765 5768 5771 5774 5776 5778 5781 5783 5786 5788 5789 5791 5792 5793 5794 5794 5795 5795 5796 5796 5796 5796 5796 5796 5796 5796 5796 5796 5796 5795 5795 5794 5793 5792 5791
5724 5728 5733 5737 5741 5745 5748 5752 5755 5758 5762 5765 5768 5771 5773 5775 5778 5780 5782 5784 5785 5786 5787 5788 5789 5790 5790 5790 5791 5791 5791 5791 5791 5791 5791 5791 5791 5790 5790 5789 5788 5787 5786 5785
5718 5723 5727 5732 5736 5740 5743 5747 5750 5753 5756 5759 5762 5765 5768 5770 5772 5775 5777 5778 5779 5781 5782 5783 5784 5785 5785 5786 5786 5786 5786 5786 5786 5786 5786 5786 5786 5785 5784 5783 5782 5781 5780 5779
5713 5717 5722 5726 5730 5734 5738 5741 5744 5748 5751 5754 5757 5760 5762 5765 5767 5769 5771 5772 5774 5775 5777 5778 5779 5779 5780 5780 5781 5781 5780 5781 5781 5781 5781 5781 5780 5779 5779 5778 5777 5775 5774 5772
5709 5713 5717 5722 5726 5730 5733 5736 5740 5743 5746 5750 5752 5755 5758 5760 5762 5764 5766 5768 5769 5770 5771 5772 5773 5774 5775 5775 5776 5776 5776 5775 5776 5776 5775 5775 5774 5774 5773 5772 5770 5769 5768 5766
5704 5709 5713 5717 5721 5725 5728 5732 5735 5738 5742 5745 5747 5750 5753 5755 5757 5760 5761 5763 5765 5766 5767 5767 5768 5769 5769 5770 5770 5770 5770 5770 5770 5770 5770 5769 5768 5768 5766 5765 5764 5763 5761 5759
5701 5705 5709 5713 5717 5720 5724 5727 5731 5734 5737 5740 5743 5746 5748 5750 5753 5755 5757 5758 5760 5761 5762 5762 5763 5764 5764 5765 5765 5765 5766 5765 5765 5765 5764 5764 5763 5761 5760 5759 5758 5756 5754 5751
5697 5701 5705 5709 5713 5717 5720 5724 5727 5730 5733 5736 5739 5741 5744 5746 5748 5750 5752 5754 5755 5756 5757 5758 5758 5759 5760 5760 5760 5761 5761 5760 5760 5760 5759 5758 5757 5756 5754 5753 5751 5749 5746 5743
5695 5698 5702 5706 5710 5713 5717 5720 5724 5727 5730 5733 5735 5738 5740 5742 5744 5746 5747 5749 5750 5751 5752 5753 5754 5755 5755 5755 5756 5756 5756 5755 5755 5754 5753 5752 5751 5749 5748 5746 5743 5741 5738 5735
5692 5695 5699 5703 5707 5710 5714 5717 5720 5723 5726 5729 5731 5733 5736 5738 5740 5742 5743 5745 5746 5747 5748 5749 5749 5750 5750 5751 5751 5751 5750 5750 5749 5748 5747 5746 5744 5743 5741 5738 5736 5733 5730 5726
5689 5693 5696 5700 5704 5708 5711 5715 5718 5721 5723 5726 5728 5730 5732 5734 5736 5738 5739 5741 5742 5743 5744 5744 5745 5745 5745 5746 5745 5745 5745 5744 5743 5742 5741 5739 5737 5735 5733 5730 5727 5724 5721 5717
5687 5690 5694 5698 5702 5706 5709 5712 5715 5718 5721 5723 5725 5727 5730 5732 5733 5734 5736 5737 5738 5739 5740 5740 5741 5741 5741 5741 5740 5740 5739 5738 5737 5735 5734 5732 5730 5727 5725 5722 5719 5716 5712 5709
5686 5689 5693 5697 5700 5704 5707 5710 5713 5716 5718 5721 5723 5725 5727 5728 5730 5731 5733 5734 5735 5735 5736 5736 5736 5736 5736 5736 5735 5734 5733 5732 5730 5729 5727 5725 5722 5720 5717 5714 5711 5707 5704 5700
5686 5690 5693 5696 5699 5703 5706 5709 5712 5714 5717 5719 5721 5722 5724 5725 5727 5728 5729 5730 5731 5731 5732 5732 5732 5731 5731 5730 5729 5728 5727 5725 5724 5722 5719 5717 5714 5712 5709 5706 5702 5699 5696 5692
5687 5690 5693 5696 5699 5702 5705 5708 5711 5713 5715 5717 5719 5720 5722 5723 5724 5725 5726 5727 5727 5727 5727 5727 5727 5726 5725 5724 5723 5722 5720 5718 5716 5714 5712 5709 5706 5704 5701 5698 5694 5691 5688 5684